Location: ???? ?????????
(44.3677°N, 135.2344°E)
Time: 01:47:18
(UTC+00:00)

Meteor 1-16 - Pass Details

Date: 19 May 2025
Orbit: 816 x 872 km, 81.2° (Epoch: 13 June)

Event Time Altitude Azimuth Distance (km) Brightness Sun altitude
Rises 14:12:15 0° 349° (N) 3,358 9.2 -25.0°
Reaches altitude 10° 14:14:38 10° 349° (N) 2,425 8.1 -25.0°
Maximum altitude 14:20:08 90° 261° (W) 833 4.5 -25.2°
Enters shadow 14:20:47 71° 172° (S) 875 4.5 -25.2°
